NWS6850 UHWW-UHHH

Flight info

Callsign NWS6850
Flight time N/A
Altitude 35000
Route DOLM2F/07R DOLMA B356 TD B355 ARDEL ARDE7C/23R
Aircraft B772/H-SDE2E3FGHIJ5LORVWXY/LB1D1

Departure

Time 2026-04-15 13:41
Airport Vladivostok International Airport (UHWW)

Arrival

Time N/A
Airport Khabarovsk Novy Airport (UHHH)
Time Latitude Longitude Altitude Speed Heading
2026-04-15 13:06 43.39858 132.16350 60 ft 0 kts 148°
2026-04-15 13:30 43.39852 132.16354 60 ft 3 kts 148°
2026-04-15 13:30 43.39831 132.16367 60 ft 6 kts 173°
2026-04-15 13:30 43.39782 132.16328 60 ft 10 kts 233°
2026-04-15 13:30 43.39750 132.16231 60 ft 7 kts 268°
2026-04-15 13:31 43.39781 132.16182 60 ft 10 kts 329°
2026-04-15 13:31 43.39856 132.16130 60 ft 4 kts 333°
2026-04-15 13:31 43.39883 132.16101 60 ft 7 kts 307°
2026-04-15 13:31 43.39880 132.16034 60 ft 10 kts 249°
2026-04-15 13:32 43.39841 132.15932 60 ft 14 kts 240°
2026-04-15 13:32 43.39787 132.15796 60 ft 18 kts 241°
2026-04-15 13:32 43.39724 132.15631 60 ft 21 kts 240°
2026-04-15 13:32 43.39648 132.15445 60 ft 23 kts 241°
2026-04-15 13:33 43.39561 132.15231 60 ft 26 kts 241°
2026-04-15 13:33 43.39467 132.14999 60 ft 29 kts 240°
2026-04-15 13:33 43.39367 132.14748 60 ft 30 kts 240°
2026-04-15 13:33 43.39261 132.14488 60 ft 26 kts 241°
2026-04-15 13:34 43.39168 132.14258 60 ft 28 kts 241°
2026-04-15 13:34 43.39068 132.14009 60 ft 30 kts 240°
2026-04-15 13:34 43.38994 132.13825 60 ft 20 kts 241°
2026-04-15 13:34 43.38919 132.13638 60 ft 23 kts 241°
2026-04-15 13:35 43.38841 132.13446 60 ft 10 kts 241°
2026-04-15 13:35 43.38804 132.13353 60 ft 12 kts 241°
2026-04-15 13:35 43.38774 132.13248 60 ft 15 kts 265°
2026-04-15 13:35 43.38782 132.13191 60 ft 4 kts 315°
2026-04-15 13:36 43.38848 132.13127 60 ft 16 kts 327°
2026-04-15 13:36 43.38911 132.13077 60 ft 1 kts 341°
2026-04-15 13:36 43.38952 132.13092 60 ft 3 kts 25°
2026-04-15 13:36 43.38965 132.13135 60 ft 7 kts 76°
2026-04-15 13:37 43.38981 132.13182 60 ft 4 kts 57°
2026-04-15 13:37 43.38984 132.13190 60 ft 0 kts 58°
2026-04-15 13:38 43.38984 132.13191 60 ft 2 kts 58°
2026-04-15 13:39 43.38998 132.13222 60 ft 1 kts 58°
2026-04-15 13:40 43.39037 132.13315 60 ft 26 kts 61°
2026-04-15 13:40 43.39269 132.13895 61 ft 125 kts 60°
2026-04-15 13:41 43.39821 132.15240 460 ft 185 kts 60°
2026-04-15 13:41 43.40492 132.16885 1377 ft 213 kts 61°
2026-04-15 13:41 43.41217 132.18721 2757 ft 232 kts 59°
2026-04-15 13:41 43.41924 132.20552 4492 ft 231 kts 68°
2026-04-15 13:42 43.42361 132.22705 5861 ft 249 kts 71°
2026-04-15 13:42 43.43190 132.24724 7229 ft 252 kts 44°
2026-04-15 13:42 43.44555 132.26305 7854 ft 270 kts 34°
2026-04-15 13:42 43.46085 132.27853 8409 ft 279 kts 33°
2026-04-15 13:43 43.47671 132.29448 8957 ft 282 kts 33°
2026-04-15 13:43 43.49248 132.31035 9489 ft 284 kts 33°
2026-04-15 13:43 43.50825 132.32622 10015 ft 285 kts 32°
2026-04-15 13:43 43.52426 132.34235 10547 ft 287 kts 32°
2026-04-15 13:44 43.54028 132.35849 11076 ft 289 kts 32°
2026-04-15 13:44 43.55642 132.37477 11605 ft 291 kts 32°
2026-04-15 13:44 43.57258 132.39108 12131 ft 293 kts 32°
2026-04-15 13:44 43.58924 132.40790 12669 ft 296 kts 32°
2026-04-15 13:45 43.60591 132.42473 13207 ft 309 kts 32°
2026-04-15 13:45 43.62426 132.44315 13790 ft 350 kts 32°
2026-04-15 13:45 43.64484 132.46387 14383 ft 376 kts 32°
2026-04-15 13:47 43.79871 132.62015 18151 ft 407 kts 31°
2026-04-15 13:47 43.82155 132.64343 18686 ft 411 kts 31°
2026-04-15 13:47 43.84449 132.66685 19211 ft 415 kts 32°
2026-04-15 13:48 43.86756 132.69043 19731 ft 419 kts 32°
2026-04-15 13:48 43.89113 132.71452 20258 ft 424 kts 32°
2026-04-15 13:48 43.91484 132.73880 20783 ft 427 kts 31°
2026-04-15 13:48 43.93882 132.76337 21309 ft 431 kts 31°
2026-04-15 13:49 43.96293 132.78810 21833 ft 436 kts 31°
2026-04-15 13:49 43.98716 132.81299 22355 ft 440 kts 31°
2026-04-15 13:49 44.01194 132.83846 22884 ft 444 kts 31°
2026-04-15 13:49 44.03677 132.86400 23409 ft 449 kts 31°
2026-04-15 13:50 44.06166 132.88965 23930 ft 453 kts 31°
2026-04-15 13:50 44.08705 132.91583 24457 ft 457 kts 31°
2026-04-15 13:50 44.11278 132.94238 24989 ft 462 kts 31°
2026-04-15 13:50 44.13834 132.96883 25514 ft 467 kts 31°
2026-04-15 13:51 44.16468 132.99608 26051 ft 472 kts 31°
2026-04-15 13:51 44.19083 133.02316 26578 ft 477 kts 31°
2026-04-15 13:51 44.21753 133.05084 27111 ft 483 kts 31°
2026-04-15 13:51 44.24463 133.07898 27647 ft 487 kts 31°
2026-04-15 13:52 44.27159 133.10700 28175 ft 492 kts 31°
2026-04-15 13:52 44.29944 133.13597 28714 ft 498 kts 31°
2026-04-15 13:52 44.32716 133.16486 29247 ft 502 kts 31°
2026-04-15 13:52 44.35522 133.19414 29781 ft 508 kts 31°
2026-04-15 13:53 44.38342 133.22359 30315 ft 511 kts 31°
2026-04-15 13:53 44.41216 133.25365 30854 ft 517 kts 31°
2026-04-15 13:53 44.44071 133.28355 31385 ft 520 kts 31°
2026-04-15 13:53 44.46959 133.31386 31916 ft 519 kts 31°
2026-04-15 13:54 44.49872 133.34447 32451 ft 519 kts 31°
2026-04-15 13:54 44.52758 133.37483 32982 ft 519 kts 31°
2026-04-15 13:54 44.55613 133.40491 33510 ft 520 kts 31°
2026-04-15 13:54 44.58490 133.43526 34040 ft 518 kts 31°
2026-04-15 13:55 44.61364 133.46561 34572 ft 518 kts 31°
2026-04-15 13:55 44.64233 133.49596 35084 ft 519 kts 31°
2026-04-15 13:55 44.66546 133.52043 35229 ft 520 kts 31°
2026-04-15 13:55 44.69546 133.55225 35243 ft 518 kts 31°
2026-04-15 13:56 44.75272 133.61305 35244 ft 517 kts 31°
2026-04-15 13:56 44.81016 133.67419 35234 ft 518 kts 31°
2026-04-15 13:57 44.86739 133.73528 35232 ft 518 kts 31°
2026-04-15 13:57 44.92461 133.79651 35232 ft 518 kts 31°
2026-04-15 13:58 44.98172 133.85777 35235 ft 519 kts 32°
2026-04-15 13:58 45.03890 133.91930 35236 ft 515 kts 32°
2026-04-15 13:59 45.09561 133.98045 35236 ft 513 kts 32°
2026-04-15 13:59 45.15136 134.04068 35237 ft 524 kts 33°
2026-04-15 14:00 45.20961 134.10378 35238 ft 533 kts 33°
2026-04-15 14:00 45.26833 134.16759 35237 ft 534 kts 33°
2026-04-15 14:01 45.35443 134.26149 35240 ft 534 kts 33°
2026-04-15 14:02 45.41501 134.32777 35239 ft 533 kts 33°
2026-04-15 14:02 45.47376 134.39246 35232 ft 534 kts 33°
2026-04-15 14:03 45.52900 134.45332 35210 ft 534 kts 33°
2026-04-15 14:03 45.59061 134.52122 35189 ft 535 kts 33°
2026-04-15 14:04 45.64906 134.58581 35179 ft 534 kts 33°
2026-04-15 14:04 45.70399 134.64670 35180 ft 535 kts 33°
2026-04-15 14:05 45.76511 134.71462 35172 ft 535 kts 33°
2026-04-15 14:05 45.81177 134.76659 35169 ft 535 kts 33°
2026-04-15 14:06 45.88429 134.83876 35175 ft 528 kts 22°
2026-04-15 14:06 45.95251 134.87218 35173 ft 512 kts
2026-04-15 14:07 46.02275 134.88275 35171 ft 509 kts 359°
2026-04-15 14:07 46.09270 134.89081 35174 ft 508 kts 359°
2026-04-15 14:08 46.16295 134.89920 35171 ft 508 kts 359°
2026-04-15 14:08 46.22339 134.90659 35173 ft 508 kts 359°
2026-04-15 14:09 46.30295 134.91643 35173 ft 508 kts 359°
2026-04-15 14:09 46.38335 134.92648 35176 ft 510 kts 359°
2026-04-15 14:10 46.45376 134.93533 35174 ft 509 kts 359°
2026-04-15 14:10 46.52404 134.94420 35173 ft 508 kts 359°
2026-04-15 14:11 46.59420 134.95309 35173 ft 509 kts 359°
2026-04-15 14:11 46.66480 134.96207 35171 ft 511 kts 359°
2026-04-15 14:12 46.73465 134.97098 35176 ft 510 kts 360°
2026-04-15 14:12 46.80533 134.98001 35175 ft 510 kts 359°
2026-04-15 14:13 46.87590 134.98908 35175 ft 510 kts 359°
2026-04-15 14:13 46.93441 134.99658 35176 ft 511 kts 360°
2026-04-15 14:14 47.01660 135.00717 35175 ft 512 kts
2026-04-15 14:14 47.08747 135.01633 35175 ft 512 kts
2026-04-15 14:15 47.12529 135.02124 35174 ft 512 kts